Skip Page Navigation
NASA JPL Caltech
NASA Logo - Jet Propulsion Laboratory + View the NASA Portal
+ Center for Near-Earth Object Studies
JPL Home Earth Solar System Stars & Galaxies Technology
JPL Solar System Dynamics
BODIES ORBITS EPHEMERIDES TOOLS PHYSICAL DATA DISCOVERY FAQ SITE MAP
JPL Small-Body Database Browser
Search: [ help ]  
3868 Mendoza (4575 P-L)
Classification: Main-belt Asteroid          SPK-ID: 2003868
Ephemeris | Orbit Diagram | Orbital Elements | Mission Design | Physical Parameters | Discovery Circumstances ]

[ hide orbit diagram ]

For accurate long-term ephemerides, please instead use our Horizons system.This orbit viewer was implemented using two-body methods, and hence should not be used for determining accurate long-term trajectories (over several years or decades) or planetary encounter circumstances.


[ revert to old Java-based viewer ]

Orbital Elements at Epoch 2459000.5 (2020-May-31.0) TDB
Reference: JPL 33 (heliocentric ecliptic J2000)
 Element Value Uncertainty (1-sigma)   Units 
e .09906981089014189 3.3269e-08  
a 2.33429079727955 6.3003e-09 au
q 2.103033049430467 7.9011e-08 au
i 8.107308815985673 3.5521e-06 deg
node 171.5529141909905 2.1683e-05 deg
peri 185.8213472764788 2.6627e-05 deg
M 270.1169220604417 1.6112e-05 deg
tp 2459325.741757223451
(2021-Apr-21.24175722)
5.8587e-05 TDB
period 1302.659357962544
3.57
5.2739e-06
1.444e-08
d
yr
n .276357742950595 1.1188e-09 deg/d
Q 2.565548545128634 6.9245e-09 au
  Orbit Determination Parameters
   # obs. used (total)      2991  
   data-arc span      24405 days (66.82 yr)  
   first obs. used      1953-10-09  
   last obs. used      2020-08-03  
   planetary ephem.      DE431  
   SB-pert. ephem.      SB431-N16  
   condition code      0  
   norm. resid. RMS      .40389  
   source      ORB  
   producer      Otto Matic  
   solution date      2020-Aug-24 23:08:36  

Additional Information
 Earth MOID = 1.0987 au 
 Jupiter MOID = 2.83793 au 
 T_jup = 3.549 
[ show covariance matrix ]

Ephemeris | Orbit Diagram | Orbital Elements | Mission Design | Physical Parameters | Discovery Circumstances ]

Physical Parameter Table
Parameter Symbol Value Units Sigma Reference Notes
absolute magnitude H 12.6   n/a MPO384787  
diameter diameter 8.628 km 0.157 urn:nasa:pds:neowise_diameters_albedos::2.0[mainbelt] (http://adsabs.harvard.edu/abs/2014ApJ...791..121M)  
rotation period rot_per 2.77090 h n/a LCDB (Rev. 2019-August); Warner et al., 2009 Published Reference List:
[Pravec, P.; Wolf, M.; Sarounova, L. (2006) http://www.asu.cas.cz/~ppravec/neo.htm]
[Oey, J.; Masi, G.; Mallia, F.; Tagliaferri, U.; Higgins, D.; et al. (2007) Minor Planet Bull. 34, 39-40.]
[Oey, J.; Pravec, P.; Kusnirak, P.; Hornoch, K.; Brinsfield, J.; et al. (2009) CBET 1835]
[Pravec, P.; Scheirich, P.; Vokrouhlicky, D.; Harris, A.W.; et al. (2012) Icarus 218, 125-143. See also supplemental on-line material.]
geometric albedo albedo 0.218   0.032 urn:nasa:pds:neowise_diameters_albedos::2.0[mainbelt] (http://adsabs.harvard.edu/abs/2014ApJ...791..121M)  

3868 Mendoza (4575 P-L)          Discovered 1960-Sep-24 by PLS at Palomar
These planets have all been discovered as a result of the Palomar survey of faint minor planets and subsequently identified with planets observed at other oppositions. In Sept. and Oct. 1960, T. Gehrels exposed 130 plates with the 122 cm Schmidt camera at Palomar. In the following years C. J. van Houten and I. van Houten-Groeneveld measured these plates astrometrically and photometrically at Leiden. P. Herget, Cincinnati, computed the orbits of the planets found on the NORC computer, Dahlgren, Virginia, USA.
Note: "planet" implies "minor planet"
Reference: DISCOVERY.DBLast Updated: 2003-08-29

Alternate Designations
 4575 P-L = 1935 SA1 = 1952 HV3 = 1953 TD2 = 1977 KD1 
Ephemeris | Orbit Diagram | Orbital Elements | Mission Design | Physical Parameters | Discovery Circumstances ]
ABOUT SSD CREDITS/AWARDS PRIVACY/COPYRIGHT GLOSSARY LINKS
FirstGov 2020-Oct-26 02:07 UT
(server date/time)  
NASA Home Page
Site Manager:   Ryan S. Park
Webmaster  Alan B. Chamberlin